Location: Invercargill
(46.4000°S, 168.3500°E)
Time: 03:47:44
(UTC+13:00)

Cosmos 2360 Rocket - Visible Passes

Search period start: 08 December 2019 00:00
Search period end: 18 December 2019 00:00
Orbit: 832 x 847 km, 71.0° (Epoch: 06 December)

Date Brightness Start Highest point End Pass type
(mag) Time Alt. Az. Time Alt. Az. Time Alt. Az.
08 Dec 4.8 04:24:06 10° ENE 04:26:16 12° E 04:28:25 10° ESE visible
09 Dec 4.8 04:08:56 10° ENE 04:10:37 11° E 04:12:17 10° ESE visible
10 Dec 4.8 03:54:00 10° ENE 03:54:58 10° E 03:55:55 10° E visible
12 Dec 2.6 05:00:55 10° NNW 05:06:29 63° ENE 05:12:06 10° SSE visible
13 Dec 2.7 04:45:15 10° N 04:50:47 60° ENE 04:56:22 10° SSE visible
14 Dec 2.7 04:29:35 10° N 04:35:06 56° ENE 04:40:38 10° SE visible
15 Dec 2.8 04:14:14 11° N 04:19:24 53° ENE 04:24:54 10° SE visible
16 Dec 2.8 03:59:05 14° N 04:03:42 49° ENE 04:09:10 10° SE visible
17 Dec 2.9 03:43:53 17° N 03:48:01 46° ENE 03:53:26 10° SE visible
